• Em Portugal
  • Lista de países
  • Para 7 dias
  • Temperatura da água
  • Mapas de satélite
  • Mapa do tempo
  • Widgets de tempo
  • user-avatar
    Iniciar Sessão

    Previsão horária em Calguri

    Hoje, 25 Maio, Sexta-feira

    Tempo Temperatura Precipitação Vento Pressão Humidade
    00:00 +21°C° 0 mm 10 m/s 725 mmHg 24%
    01:00 +21°C° 0 mm 11 m/s 725 mmHg 24%
    02:00 +21°C° 0 mm 11 m/s 724 mmHg 24%
    03:00 +21°C° 0 mm 11 m/s 723 mmHg 24%
    04:00 +21°C° 0 mm 12 m/s 723 mmHg 24%
    05:00 +22°C° 0 mm 12 m/s 723 mmHg 24%
    06:00 +22°C° 0 mm 12 m/s 723 mmHg 25%
    07:00 +22°C° 0 mm 12 m/s 723 mmHg 25%
    08:00 +22°C° 0 mm 12 m/s 723 mmHg 23%
    09:00 +23°C° 0 mm 13 m/s 723 mmHg 28%
    10:00 +24°C° 0 mm 14 m/s 722 mmHg 33%
    11:00 +26°C° 0 mm 15 m/s 722 mmHg 37%
    12:00 +24°C° 0,2 mm 14 m/s 722 mmHg 44%
    13:00 +22°C° 0,2 mm 13 m/s 722 mmHg 51%
    14:00 +21°C° 0,2 mm 12 m/s 721 mmHg 59%
    15:00 +21°C° 0,1 mm 11 m/s 722 mmHg 54%
    16:00 +21°C° 0,1 mm 10 m/s 722 mmHg 50%
    17:00 +19°C° 0,1 mm 9 m/s 722 mmHg 46%
    18:00 +18°C° 0 mm 8 m/s 722 mmHg 49%
    19:00 +17°C° 0 mm 8 m/s 723 mmHg 51%
    20:00 +17°C° 0 mm 7 m/s 723 mmHg 53%
    21:00 +16°C° 0 mm 7 m/s 723 mmHg 54%
    22:00 +16°C° 0 mm 7 m/s 723 mmHg 55%
    23:00 +15°C° 0 mm 7 m/s 723 mmHg 56%

    Amanhã, 26 Maio, Sábado

    Tempo Temperatura Precipitação Vento Pressão Humidade
    00:00 +15°C° 0 mm 7 m/s 723 mmHg 57%
    01:00 +14°C° 0 mm 7 m/s 723 mmHg 59%
    02:00 +13°C° 0 mm 8 m/s 723 mmHg 60%
    03:00 +13°C° 0 mm 8 m/s 723 mmHg 62%
    04:00 +12°C° 0 mm 8 m/s 723 mmHg 65%
    05:00 +12°C° 0 mm 8 m/s 724 mmHg 67%
    06:00 +12°C° 0 mm 9 m/s 724 mmHg 68%
    07:00 +12°C° 0 mm 10 m/s 724 mmHg 68%
    08:00 +12°C° 0 mm 11 m/s 725 mmHg 69%
    09:00 +13°C° 0 mm 11 m/s 725 mmHg 64%
    10:00 +14°C° 0 mm 11 m/s 725 mmHg 60%
    11:00 +16°C° 0 mm 11 m/s 725 mmHg 55%
    12:00 +16°C° 0 mm 10 m/s 725 mmHg 54%
    13:00 +17°C° 0 mm 10 m/s 725 mmHg 52%
    14:00 +17°C° 0 mm 10 m/s 725 mmHg 51%
    15:00 +17°C° 0 mm 9 m/s 725 mmHg 53%
    16:00 +16°C° 0 mm 9 m/s 726 mmHg 56%
    17:00 +16°C° 0 mm 8 m/s 726 mmHg 59%
    18:00 +15°C° 0 mm 8 m/s 726 mmHg 64%
    19:00 +14°C° 0 mm 7 m/s 727 mmHg 70%
    20:00 +14°C° 0 mm 6 m/s 727 mmHg 75%
    21:00 +13°C° 0 mm 6 m/s 728 mmHg 77%
    22:00 +13°C° 0 mm 6 m/s 728 mmHg 80%
    23:00 +11°C° 0 mm 6 m/s 729 mmHg 83%

    Depois de amanhã, 27 Maio, Domingo

    Tempo Temperatura Precipitação Vento Pressão Humidade
    00:00 +12°C° 0 mm 5 m/s 729 mmHg 85%
    01:00 +10°C° 0 mm 5 m/s 729 mmHg 87%
    02:00 +10°C° 0 mm 5 m/s 729 mmHg 89%
    03:00 +10°C° 0 mm 5 m/s 729 mmHg 89%
    04:00 +9°C° 0 mm 5 m/s 729 mmHg 90%
    05:00 +9°C° 0 mm 5 m/s 729 mmHg 91%
    06:00 +9°C° 0 mm 5 m/s 730 mmHg 87%
    07:00 +10°C° 0 mm 5 m/s 730 mmHg 83%
    08:00 +10°C° 0 mm 5 m/s 731 mmHg 80%
    09:00 +13°C° 0 mm 6 m/s 731 mmHg 72%
    10:00 +16°C° 0 mm 7 m/s 731 mmHg 64%
    11:00 +18°C° 0 mm 7 m/s 731 mmHg 56%
    12:00 +18°C° 0 mm 7 m/s 730 mmHg 55%
    13:00 +18°C° 0 mm 8 m/s 730 mmHg 53%
    14:00 +18°C° 0 mm 8 m/s 730 mmHg 51%
    15:00 +18°C° 0 mm 7 m/s 730 mmHg 53%
    16:00 +19°C° 0 mm 6 m/s 730 mmHg 54%
    17:00 +17°C° 0 mm 5 m/s 730 mmHg 56%
    18:00 +16°C° 0 mm 5 m/s 731 mmHg 60%
    19:00 +15°C° 0 mm 4 m/s 731 mmHg 64%
    20:00 +14°C° 0 mm 4 m/s 731 mmHg 68%
    21:00 +14°C° 0 mm 4 m/s 731 mmHg 71%
    22:00 +14°C° 0 mm 4 m/s 732 mmHg 74%
    23:00 +13°C° 0 mm 4 m/s 732 mmHg 77%

    28 Maio, Segunda-feira

    Tempo Temperatura Precipitação Vento Pressão Humidade
    00:00 +13°C° 0 mm 4 m/s 732 mmHg 80%
    01:00 +12°C° 0 mm 4 m/s 732 mmHg 84%
    02:00 +12°C° 0 mm 4 m/s 732 mmHg 87%
    03:00 +12°C° 0 mm 4 m/s 732 mmHg 89%
    04:00 +12°C° 0 mm 4 m/s 732 mmHg 90%
    05:00 +11°C° 0 mm 4 m/s 732 mmHg 92%
    06:00 +12°C° 0 mm 4 m/s 733 mmHg 88%
    07:00 +12°C° 0 mm 4 m/s 734 mmHg 84%
    08:00 +12°C° 0 mm 4 m/s 734 mmHg 80%
    09:00 +14°C° 0 mm 5 m/s 734 mmHg 72%
    10:00 +15°C° 0 mm 5 m/s 734 mmHg 64%
    11:00 +16°C° 0 mm 5 m/s 735 mmHg 56%
    12:00 +17°C° 0 mm 5 m/s 734 mmHg 50%
    13:00 +19°C° 0 mm 5 m/s 734 mmHg 43%
    14:00 +20°C° 0 mm 5 m/s 733 mmHg 37%
    15:00 +19°C° 0 mm 4 m/s 734 mmHg 37%
    16:00 +18°C° 0 mm 4 m/s 734 mmHg 38%
    17:00 +17°C° 0 mm 3 m/s 734 mmHg 38%
    18:00 +17°C° 0 mm 3 m/s 735 mmHg 40%
    19:00 +16°C° 0 mm 3 m/s 736 mmHg 42%
    20:00 +14°C° 0 mm 3 m/s 736 mmHg 44%
    21:00 +13°C° 0 mm 3 m/s 736 mmHg 47%
    22:00 +13°C° 0 mm 3 m/s 737 mmHg 49%
    23:00 +12°C° 0 mm 3 m/s 737 mmHg 51%

    29 Maio, Terça-feira

    Tempo Temperatura Precipitação Vento Pressão Humidade
    00:00 +12°C° 0 mm 3 m/s 737 mmHg 53%
    01:00 +11°C° 0 mm 3 m/s 737 mmHg 56%
    02:00 +10°C° 0 mm 4 m/s 737 mmHg 58%
    03:00 +10°C° 0 mm 4 m/s 737 mmHg 62%
    04:00 +9°C° 0 mm 3 m/s 737 mmHg 65%
    05:00 +9°C° 0 mm 3 m/s 737 mmHg 68%
    06:00 +10°C° 0 mm 4 m/s 737 mmHg 68%
    07:00 +10°C° 0 mm 4 m/s 738 mmHg 68%
    08:00 +10°C° 0 mm 5 m/s 738 mmHg 67%
    09:00 +13°C° 0 mm 5 m/s 738 mmHg 59%
    10:00 +15°C° 0 mm 5 m/s 738 mmHg 51%
    11:00 +16°C° 0 mm 6 m/s 738 mmHg 43%
    12:00 +17°C° 0 mm 5 m/s 737 mmHg 40%
    13:00 +19°C° 0 mm 4 m/s 737 mmHg 38%
    14:00 +20°C° 0 mm 4 m/s 736 mmHg 35%
    15:00 +19°C° 0 mm 3 m/s 736 mmHg 37%
    16:00 +18°C° 0 mm 3 m/s 736 mmHg 38%
    17:00 +17°C° 0 mm 2 m/s 736 mmHg 39%
    18:00 +17°C° 0 mm 3 m/s 737 mmHg 41%
    19:00 +16°C° 0 mm 3 m/s 737 mmHg 42%
    20:00 +14°C° 0 mm 3 m/s 737 mmHg 44%
    21:00 +14°C° 0 mm 4 m/s 737 mmHg 45%
    22:00 +13°C° 0 mm 4 m/s 737 mmHg 46%
    23:00 +13°C° 0 mm 4 m/s 737 mmHg 48%

    30 Maio, Quarta-feira

    Tempo Temperatura Precipitação Vento Pressão Humidade
    00:00 +12°C° 0 mm 4 m/s 737 mmHg 48%
    01:00 +12°C° 0 mm 5 m/s 737 mmHg 49%
    02:00 +10°C° 0 mm 5 m/s 737 mmHg 50%
    03:00 +10°C° 0 mm 5 m/s 737 mmHg 50%
    04:00 +11°C° 0 mm 4 m/s 737 mmHg 50%
    05:00 +10°C° 0 mm 4 m/s 737 mmHg 51%
    06:00 +10°C° 0 mm 5 m/s 737 mmHg 49%
    07:00 +10°C° 0 mm 5 m/s 737 mmHg 47%
    08:00 +12°C° 0 mm 5 m/s 737 mmHg 45%
    09:00 +14°C° 0 mm 6 m/s 737 mmHg 40%
    10:00 +16°C° 0 mm 6 m/s 736 mmHg 36%
    11:00 +18°C° 0 mm 7 m/s 736 mmHg 31%
    12:00 +20°C° 0 mm 7 m/s 735 mmHg 30%
    13:00 +21°C° 0 mm 6 m/s 734 mmHg 29%
    14:00 +22°C° 0 mm 6 m/s 734 mmHg 28%
    15:00 +21°C° 0 mm 6 m/s 734 mmHg 32%
    16:00 +20°C° 0 mm 5 m/s 733 mmHg 35%
    17:00 +19°C° 0 mm 4 m/s 733 mmHg 39%
    18:00 +19°C° 0 mm 4 m/s 733 mmHg 42%
    19:00 +18°C° 0 mm 4 m/s 734 mmHg 45%
    20:00 +17°C° 0 mm 4 m/s 734 mmHg 48%
    21:00 +16°C° 0 mm 5 m/s 733 mmHg 49%
    22:00 +16°C° 0 mm 5 m/s 733 mmHg 50%
    23:00 +16°C° 0 mm 6 m/s 733 mmHg 51%
    Mostrar mais